Home > Weather > Hereford > Past weeks

Flag for USA Past Weather in Hereford, Texas, USA — Yesterday and Last 2 Weeks

Now
70 °F

Thunderstorms. Mostly cloudy.


Feels Like: 70 °F
Forecast: 68 / 96 °F
Wind: 17 mph from Northeast

Location: Clovis Municipal

Current Time: Jul 30, 2016 at 12:34:02 AM

Latest Report: Jul 29, 2016 at 11:55 PM


Visibility: 10 mi

Pressure: 30.19 "Hg (26.36 "Hg at 1167m altitude)

Humidity: 64%

Dew Point: 57 °F

Location of HerefordLocation

Past Weather in Hereford — Graph

°F

Hereford Temperature Yesterday

Maximum temperature yesterday: 93 °F (at 3:35 PM)
Minimum temperature yesterday: 64 °F (at 5:35 AM)
Average temperature yesterday: 80 °F

High & Low Weather Summary for the Past Weeks

 TemperatureHumidityPressure
High99 °F (Jul 17, 3:15 PM)83% (Jul 15, 4:35 AM)30.33 "Hg (Jul 15, 4:35 AM)
Low61 °F (Jul 28, 7:35 AM)16% (Jul 23, 4:55 PM)29.97 "Hg (Jul 15, 7:15 PM)
Average80 °F45%30.15 "Hg
* Reported Jul 14 11:15 PM — Jul 29 11:15 PM, Hereford, Weather by CustomWeather, © 2016

Note: Actual official high and low records may vary slightly from our data, if they occured in-between our weather recording intervals... More about our weather records

Advertising

Hereford Weather History for the Previous 24 Hours

Scroll right to see more
 ConditionsComfort  
Time TempWeatherWind HumidityBarometerVisibility
11:15 PM
Fri, Jul 29
75 °FOvercast.29 mph50%30.17 "Hg10 mi
10:55 PM79 °FPassing clouds.22 mph42%30.14 "Hg10 mi
10:35 PM79 °FClear.9 mph42%30.11 "Hg10 mi
10:15 PM79 °FClear.10 mph42%30.10 "Hg10 mi
9:55 PM81 °FClear.10 mph39%30.09 "Hg10 mi
9:35 PM81 °FSunny.12 mph39%30.08 "Hg10 mi
9:15 PM81 °FSunny.10 mph39%30.09 "Hg10 mi
8:55 PM82 °FSunny.9 mph37%30.08 "Hg10 mi
8:35 PM84 °FSunny.10 mph35%30.08 "Hg10 mi
8:15 PM86 °FSunny.9 mph33%30.07 "Hg10 mi
7:55 PM88 °FPassing clouds.17 mph33%30.06 "Hg10 mi
7:35 PM90 °FScattered clouds.17 mph31%30.05 "Hg10 mi
7:15 PM90 °FPassing clouds.13 mph29%30.05 "Hg10 mi
6:35 PM91 °FPassing clouds.20 mph30%30.04 "Hg10 mi
6:15 PM91 °FPassing clouds.18 mph30%30.05 "Hg10 mi
5:55 PM91 °FPassing clouds.14 mph30%30.05 "Hg10 mi
5:35 PM91 °FPassing clouds.21 mph30%30.05 "Hg10 mi
5:15 PM91 °FPassing clouds.22 mph30%30.05 "Hg10 mi
4:55 PM93 °FPassing clouds.16 mph28%30.05 "Hg10 mi
4:35 PM93 °FPassing clouds.17 mph26%30.06 "Hg10 mi
4:15 PM91 °FPassing clouds.17 mph30%30.07 "Hg10 mi
3:55 PM91 °FScattered clouds.16 mph32%30.08 "Hg10 mi
3:35 PM93 °FScattered clouds.13 mph30%30.10 "Hg10 mi
3:15 PM91 °FSunny.16 mph32%30.11 "Hg10 mi
2:55 PM91 °FSunny.18 mph34%30.12 "Hg10 mi
2:35 PM90 °FSunny.17 mph36%30.13 "Hg10 mi
2:15 PM90 °FSunny.17 mph38%30.14 "Hg10 mi
1:55 PM90 °FPassing clouds.20 mph38%30.15 "Hg10 mi
1:35 PM88 °FBroken clouds.13 mph38%30.16 "Hg10 mi
1:15 PM90 °FScattered clouds.18 mph36%30.17 "Hg10 mi
12:55 PM90 °FScattered clouds.13 mph36%30.18 "Hg10 mi
12:35 PM90 °FSunny.13 mph36%30.18 "Hg10 mi
12:15 PM88 °FSunny.No wind38%30.17 "Hg10 mi
11:55 AM88 °FSunny.5 mph38%30.17 "Hg10 mi
11:35 AM86 °FSunny.13 mph40%30.15 "Hg10 mi
11:15 AM84 °FSunny.15 mph43%30.15 "Hg10 mi
10:55 AM84 °FSunny.15 mph45%30.16 "Hg10 mi
10:35 AM81 °FSunny.9 mph48%30.16 "Hg10 mi
9:55 AM79 °FSunny.3 mph51%30.17 "Hg10 mi
9:35 AM77 °FSunny.No wind51%30.17 "Hg10 mi
9:15 AM75 °FSunny.3 mph54%30.17 "Hg10 mi
8:55 AM73 °FSunny.No wind57%30.17 "Hg10 mi
8:35 AM73 °FSunny.7 mph53%30.17 "Hg10 mi
8:15 AM72 °FSunny.13 mph57%30.17 "Hg10 mi
7:55 AM72 °FClear.12 mph61%30.18 "Hg10 mi
7:35 AM70 °FClear.8 mph64%30.18 "Hg10 mi
7:15 AM68 °FClear.13 mph69%30.18 "Hg10 mi
6:55 AM66 °FClear.15 mph73%30.18 "Hg10 mi
6:35 AM64 °FClear.8 mph73%30.15 "Hg10 mi
6:15 AM66 °FClear.6 mph73%30.14 "Hg10 mi
5:55 AM66 °FClear.5 mph68%30.13 "Hg10 mi
5:35 AM64 °FClear.8 mph73%30.13 "Hg10 mi
5:15 AM66 °FClear.6 mph68%30.13 "Hg10 mi
4:55 AM66 °FClear.No wind68%30.13 "Hg10 mi
4:35 AM66 °FClear.6 mph68%30.12 "Hg10 mi
4:15 AM66 °FClear.7 mph68%30.12 "Hg10 mi
3:55 AM66 °FClear.7 mph68%30.12 "Hg10 mi
3:35 AM70 °FClear.8 mph64%30.12 "Hg10 mi
3:15 AM70 °FClear.9 mph64%30.12 "Hg10 mi
2:55 AM70 °FClear.9 mph60%30.12 "Hg10 mi
2:35 AM70 °FClear.7 mph60%30.12 "Hg10 mi
2:15 AM70 °FClear.8 mph60%30.12 "Hg10 mi
1:55 AM72 °FClear.8 mph57%30.12 "Hg10 mi
1:35 AM72 °FClear.7 mph57%30.12 "Hg10 mi
1:15 AM73 °FClear.8 mph53%30.12 "Hg10 mi
12:55 AM72 °FClear.8 mph57%30.12 "Hg10 mi
12:35 AM72 °FClear.8 mph53%30.11 "Hg10 mi
12:15 AM72 °FClear.8 mph53%30.11 "Hg10 mi
Weather by CustomWeather, © 2016

See weather overviewHow to use our weather pages